Hulianwang W. Digui 16-09

operational
NORAD ID: 67067 Int'l Des: 2025-295 Owner: ZXW Country: CN Constellation: xingwang
LEOCIRCULAR

Über Hulianwang W. Digui 16-09

Beschreibung wird geladen...

Live-Position

3D-Globus wird geladen...

Nächste Überflüge

Höhenverlauf

Altitude vs Time

uPlot chart will show altitude changes over time

Zweizeiliger Elementsatz

1 67067U 25295J 25346.21271476 -.00000145 00000-0 64760-5 0 9998
2 67067 50.0044 14.4694 0010490 253.0387 106.9378 14.26361638 49
Epoch: 12. Dez. 2025 • Age: 51 hours

Aktueller Status

Höhe 810.7 km
Geschwindigkeit 7.45 km/s
Subsatellitenpunkt 34.43°N, 55.2°W
Startdatum 11. Dez. 2025
Alter 3 days
Typ other

Technische Details

Klassifizierung Payload
Masse 800.00 kg
Trockenmasse 800.00 kg
Gesamtmasse 800.00 kg
Länge 3.00 m
Durchmesser 1.00 m
Spannweite 10.00 m
Form Box + 2 Pan
Hersteller YINNT
Bus-Typ Guowang Y
Phasenstatus In Orbit
Besitzer/Staat ZXW/CN

Große Konstellationen

Loading constellations...